CAPE
1006 1258 1429 1503 2038 2791 2272 2155 1921 1868 2464 2052 2154 2149 2070 1981 1992 2117 2371 2633 3026 3102 3066 2973 2921 2965 2843 2855 2882 2894 2788 2749 2806 2755 2490 2263 2268 2099 2094 2006 1992 1996 2068 1928 1905 1942 2083 2093 2119 2118 2084 2044 2174 2229 2189 2218 2202 2159 2154 2195 2260 2300 2009 1984 2342 2001 1764 1490 934 196 109 936 2143 2074 1721 1685 1595 1364 1075 1080 1528 1586 1448 1718 2645
1106 1366 1511 1638 2225 2584 2843 2769 2720 2255 1880 2274 1976 2122 2267 2260 2229 2027 2426 2609 2999 3020 2990 2897 2865 2936 2977 2938 2908 2859 2812 2679 2689 2329 2454 2285 2179 2187 1997 2063 2000 1927 2019 2309 2278 2329 2304 2384 2459 2356 2294 2383 2250 2161 2295 2284 2300 2290 1967 2221 1949 1768 1667 2094 1783 1678 1694 1513 1361 1001 906 1006 878 1207 1491 1976 1561 1321 1490 1615 1547 1350 1323 1613 2079
1281 1471 1571 1697 2518 2854 2984 3009 2760 2454 2283 1984 2142 2268 2270 2326 2288 1937 2231 2759 3061 2999 2944 2868 2926 2984 3053 3026 2864 2722 2826 2567 2460 2328 2171 2327 2054 2137 2116 1976 1997 2122 2050 2410 2379 2311 2379 2484 2427 2637 2013 2469 2150 2292 1972 2492 2098 1747 1913 1826 1742 1686 1438 1524 1708 1744 1722 1306 1287 1236 1296 905 880 622 646 1084 1216 1395 1500 1574 1541 1398 1463 1603 1668
1357 1562 1617 2093 2816 3060 3102 3000 2670 2480 2174 2167 2094 2256 2291 2400 2355 2222 2427 2679 2926 2958 2894 2748 2921 2951 2913 2810 2896 2752 2544 2476 2438 2333 2290 2193 2187 2080 2084 2053 2177 2463 2214 2365 2260 2283 2512 2380 2391 2480 2442 2434 2487 2365 2355 2162 2264 2100 1929 1983 1628 1532 1655 1679 1845 1760 1654 1478 1587 1551 1804 1207 1117 892 725 728 1123 1258 1434 1542 1404 1389 1665 1703 1822
1430 1611 1842 2208 2707 3037 3131 2972 2769 2289 2250 2452 2024 2210 2435 2440 2451 2469 2360 2552 2905 2990 2803 2634 2947 2925 2754 2544 2835 2778 2567 2497 2340 2148 2135 2349 2248 2308 2284 2286 2399 2385 2471 2146 2379 2377 2411 2408 2399 2483 2452 2414 2502 2500 2401 2489 2563 2248 1983 1940 1955 1708 1105 1502 1624 1723 1595 1609 1641 1392 1392 1176 1161 799 997 1134 904 1071 1076 1396 1502 1546 1269 1436 1699
1595 1751 1938 2315 2571 2883 3258 2925 2555 2288 2280 2210 2172 2484 2462 2324 2402 2296 2358 2746 2963 2720 2907 2936 3043 2770 2570 2793 2805 2734 2764 2386 2104 2126 2023 2377 2345 2328 2294 2281 2331 2458 2566 2378 2274 2318 2444 2470 2554 2666 2559 2541 2582 2661 2561 2506 2632 2516 2635 2544 2306 2249 2230 1670 1699 1710 1784 1795 1696 1882 1382 1224 1156 1080 1004 1120 1008 869 1118 1087 1152 1397 1413 1454 1694
1714 1839 2032 2289 2316 2660 3248 2892 2426 2236 2304 2244 2244 2471 2656 2444 2208 2220 2521 2808 2880 2782 2983 2850 2844 2670 2717 2584 2607 2748 2526 2257 2078 2141 2243 2465 2281 2294 2275 2308 2410 2429 2561 2443 2505 2485 2438 2527 2405 2620 2647 2595 2624 2555 2609 2585 2493 2515 2260 2460 2535 2666 2310 2335 1977 2333 2146 1829 1529 1377 1231 1186 1149 991 1003 1212 1048 977 920 790 1054 1466 1560 1264 1412
1752 1924 2064 2140 2183 2498 3259 2750 2344 2345 2487 2244 2359 2489 2522 2541 2298 2536 2725 2704 2759 2754 2744 2808 2805 2835 2673 2902 2712 2790 2631 2437 2162 2117 2208 2583 2498 2255 2225 2196 2325 2574 2596 2614 2387 2362 2140 2483 2443 2608 2586 2589 2715 2762 2706 2605 2275 2250 2387 2414 2462 2498 2486 2033 1906 1999 1678 1864 1489 1291 1235 1175 1221 1197 1211 1277 978 845 860 915 840 1166 1387 1170 1320
1791 1953 2031 2070 2128 2686 3153 2648 2396 2516 2379 2462 2475 2548 2539 2491 2538 2662 2618 2602 2494 2653 2679 2679 2903 2811 2821 2753 2781 2800 2683 2464 2136 2230 2367 2442 2367 2453 2464 2337 2310 2287 2095 2196 2454 2297 2563 2675 2588 2628 2614 2582 2441 2462 2450 2382 2552 2451 2310 2257 2458 2470 2578 1970 1535 2019 1672 1541 1574 1575 1337 1306 1457 1401 1230 1231 1310 1130 1121 971 1006 1089 1038 1846 1588
1829 1882 1969 1984 2041 2780 2914 2866 2532 2511 2413 2587 2659 2515 2543 2620 2560 2681 2674 2586 2571 2530 2696 2644 2819 2805 2784 2834 2788 2824 2788 2622 2305 2203 2355 2510 2560 2706 2826 2550 2442 2484 2485 2480 2469 2491 2543 2536 2626 2923 2376 2645 2684 2569 2499 2561 2621 2723 2722 2405 2166 2296 2345 1924 1991 2134 2007 1758 1674 1785 1576 1408 1328 1286 1286 1209 1098 1191 1101 1120 1057 1022 1134 1904 1904
1833 1856 1864 1909 1999 2914 3062 2920 2732 2661 2438 2550 2616 2410 2480 2617 2447 2432 2414 2443 2520 2548 2599 2723 2718 2842 2845 2850 2803 2824 2908 2667 2586 2418 2246 2218 2398 2478 2594 2711 2257 2138 2359 2521 2650 2604 2301 2301 2370 2555 2516 2409 2533 2694 2793 2609 2629 2706 2726 2743 2582 2568 2363 2134 2223 2219 1915 1776 1781 1683 1486 1426 1470 1359 1266 1258 1204 1070 1046 1066 1143 1235 1221 1474 1812
1838 1880 1884 1895 2236 3052 3091 2861 2825 2761 2645 2726 2654 2588 2519 2540 2309 2287 2338 2393 2482 2455 2533 2620 2547 2747 2945 2812 2855 2956 2899 2885 2854 2769 2709 2672 2522 2428 2454 2508 2797 2324 2430 2618 2930 2915 2435 2276 2598 2788 2535 2488 2747 2492 2885 3020 2863 2805 2888 2897 2576 2533 2627 2354 2253 1815 1609 1482 1432 1512 1593 1547 1426 1318 1462 1302 1262 1059 1055 1081 1173 1337 1443 955 1612
1802 1890 1921 1910 2490 2717 3012 3010 2782 2688 2684 2728 2671 2553 2448 2338 2382 2394 2386 2396 2376 2377 2600 2603 2735 2767 2889 2919 2868 2906 2885 2946 2974 2972 2907 2930 2866 2988 2924 3041 3000 2942 2990 3017 3050 3122 3017 2773 2360 2358 2733 2706 2390 2130 2199 2548 2685 2281 2786 2863 2707 2673 2157 2250 2453 2054 1759 1750 1704 1619 1669 1645 1481 1454 1306 1052 1278 1287 1194 1138 1141 1197 1224 1164 1542
1703 1841 1924 1909 2268 2998 2962 2972 2837 2676 2672 2698 2429 2357 2387 2317 2356 2372 2224 2225 2379 2414 2428 2636 2754 2552 2764 2881 2951 3004 3021 3055 3046 3102 2947 2842 2909 2944 2934 2771 2873 2865 2720 2619 2933 2709 2668 2579 2469 2738 2641 1961 2182 2426 2532 2594 2751 2967 2416 2082 2396 2178 2231 2265 2335 2200 1980 1711 1561 1624 1679 1666 1616 1528 1520 1294 1029 1354 1209 1225 1068 1158 1118 1329 1372
1554 1718 1878 1890 2107 2897 2841 2767 2858 2510 2417 2664 2434 2314 2260 2225 2086 2059 2088 2254 2366 2508 2673 2600 2843 3066 2898 3040 2942 2920 2984 2985 3032 3156 3008 2984 3045 2934 2900 2393 2378 2315 2249 2456 2821 2800 2347 1837 1795 2386 2316 2321 2311 2549 2513 2513 2687 2438 2525 2168 1772 2051 1855 1963 1812 1951 1910 1799 1665 1566 1542 1540 1430 1564 1581 1475 1226 1292 1181 1277 1230 1082 1196 1315 1461
1390 1560 1845 1828 2012 2647 2982 2862 2834 2760 2660 2563 2283 2319 2380 2289 2284 2209 2320 2374 2433 2550 2659 2775 2875 2854 2819 2992 3000 3030 3096 3147 3121 3039 3089 3078 3026 2859 2426 1944 2311 2331 1874 1940 2145 2347 2165 1987 2193 2484 2629 2628 2596 2454 2459 2525 2453 2527 2622 2549 2437 2218 2110 2100 1994 1872 1818 1909 1876 1715 1549 1407 1344 1408 1453 1509 1351 1159 1203 1212 1131 1100 1170 1149 1531
1200 1553 1662 1702 1872 2392 2750 2900 2707 2920 2810 2705 2564 2523 2478 2360 2373 2441 2525 2592 2493 2587 2415 2479 2767 2823 2762 2931 3104 3096 3115 3010 3083 3140 2841 2720 2633 2763 2565 2710 2520 2331 2372 2491 2321 2198 2198 2236 2291 2432 2598 2848 2833 2615 2472 2428 2978 2749 2713 2410 2175 1947 1963 1900 2082 1841 1785 1752 1855 1767 1710 1621 1523 1500 1514 1531 1305 1234 1130 1375 1274 1055 1021 907 1185
1136 1334 1452 1602 1798 2128 2557 2701 2628 2652 2629 2711 2718 2503 2394 2288 2289 2336 2356 2432 2485 2598 2736 2776 2868 2934 2874 2563 2668 2976 3009 3035 3090 2557 2601 2848 2578 2457 2642 2561 2452 2630 2230 2331 2206 2374 2262 2352 2379 2272 3211 2841 2745 2497 2388 2420 2592 2635 3066 2530 2292 2042 2012 1982 1654 1722 1681 1721 1766 1640 1611 1637 1636 1647 1567 1522 1328 970 1189 1132 1164 1180 1191 805 1079
1134 1234 1255 1458 1739 1994 2369 2559 2555 2446 2466 2469 2385 2542 2331 2148 2299 2191 2331 2439 2479 2666 2677 2820 2763 2988 3284 3080 3137 2819 2848 2956 2510 2168 1717 2323 2425 2755 2612 2476 2267 2090 2040 2025 2226 2208 2550 2774 2662 2244 2693 2608 2537 2438 2259 2638 2502 2383 2381 2493 2484 2288 1938 2187 1523 1612 1777 1838 1901 1788 1702 1636 1767 2023 1462 1332 1320 1255 1296 1273 1267 1120 998 958 893
1195 1212 1163 1308 1601 1892 2164 2355 2459 2418 2362 2390 2354 2261 2569 2511 2168 2335 2479 2471 2546 2453 2433 2645 2768 2870 2943 3062 2848 2868 2909 3051 3474 2935 2983 2740 2403 2493 2242 2156 1923 1901 1816 1844 2286 2420 2795 2599 2581 2499 2447 2804 2713 2500 2351 2411 2440 2332 2230 2082 1832 2182 2119 1833 1800 1664 1624 1672 1765 1744 1723 1670 1827 1987 2004 1397 1260 1398 1507 1382 1227 1157 1028 988 741
1351 1346 1206 1286 1476 1742 1959 2127 2238 2270 2247 2263 2299 2260 2180 2707 2498 2309 2524 2534 2574 2661 2823 2893 2865 2811 2754 2802 3068 3145 3208 3167 3191 3155 3587 2959 2244 2408 2376 2104 2283 2241 2060 2160 2700 3064 2790 2761 2679 2681 2480 3084 3307 3097 3090 2594 2293 2028 2008 1919 1989 1735 1714 1740 1598 1610 1558 1531 1617 1453 1604 1837 2011 1902 1788 1610 1700 1665 1731 1405 1160 1137 1082 958 1085
1363 1391 1362 1351 1417 1583 1790 1929 2016 2113 2147 2179 2190 2207 2155 2640 2348 2188 2428 2648 2809 2753 2831 2781 3032 3097 3410 3111 3180 3366 3426 3224 3155 3489 3405 2405 2429 2490 1932 2406 2503 2398 2165 2250 2532 2874 2885 2807 2771 2696 2670 2632 2810 3376 2992 2610 2382 2289 2103 2022 1916 1654 1294 1618 1625 1506 1549 1672 1707 1722 1788 2000 2092 1942 1694 1762 1914 1839 1856 1769 1493 1349 1076 958 1064
1351 1381 1406 1384 1394 1465 1659 1809 1843 1907 2009 2024 1960 1968 2028 2022 1992 2081 2089 2601 2806 2975 2997 3110 3074 3132 3256 3233 3354 3329 3200 3167 3116 3342 2489 2682 2702 2697 2298 2368 2534 2510 2836 2948 2986 2725 2604 2716 2861 2827 2592 2725 2924 2335 2270 2119 1948 1851 1857 1774 1576 1706 1623 1478 1308 1374 1645 1670 1674 1827 1925 2042 1880 1898 1886 1799 1805 1836 1732 1658 1483 1155 1165 1003 1039
1332 1351 1377 1376 1363 1407 1515 1662 1729 1739 1816 1875 1880 1857 1852 1846 1803 1734 1835 1936 1991 2296 2594 2804 2918 3044 3095 3183 3121 3084 2975 2868 3263 3589 3052 2888 2938 2652 2071 2451 2379 2428 2748 2872 2142 1950 2346 2191 1987 2103 2149 1951 1885 1743 1533 1411 1395 1447 1296 1237 1362 1332 1151 1357 1268 1395 1659 1724 1721 1916 1891 1844 1764 1784 1868 1833 1894 1844 1564 1873 1552 1342 1158 1062 875
1293 1303 1526 1315 1331 1356 1381 1468 1562 1634 1655 1679 1777 1786 1746 1692 1612 1558 1503 1562 1780 2079 2294 2447 2648 2799 2862 2831 2760 2712 2767 2777 2814 2885 2933 2876 2543 1716 1831 1905 1869 1784 2183 1791 1675 1674 1693 1637 1500 1591 1642 1778 1571 1382 1386 1410 1348 1312 1216 1018 914 940 1068 1227 1249 1207 1386 1530 1607 1763 1918 1915 1788 1847 1881 1986 1966 1874 1699 1645 1412 1281 1154 1072 979
1381 1378 1362 1348 1351 1320 1304 1259 1325 1422 1490 1524 1569 1716 1933 1501 1426 1485 1482 1480 1646 1904 2131 2241 2324 2340 2394 2509 2606 2737 2814 2952 2960 2901 2637 2259 1709 2086 2076 2011 1934 1743 1783 1558 1558 1537 1541 1550 1522 1597 1568 1366 1273 1161 1036 1099 1070 936 883 954 905 842 867 927 1003 1254 1357 1457 1531 1584 1650 1890 1999 2013 2215 2112 2201 2147 1887 1630 1546 1342 1223 1043 1010
1453 1506 1407 1386 1378 1322 1250 1141 1078 1173 1252 1360 1404 1549 1678 1596 1411 1532 1666 1596 1571 1687 1819 1984 2116 2170 2325 2542 2746 2750 2604 2424 2253 2112 1690 1910 2186 2114 2090 2062 1907 1742 1792 1670 1489 1406 1398 1447 1522 1648 1470 1122 1042 1004 984 868 787 751 592 530 569 608 627 678 874 1122 1198 1346 1460 1465 1844 1922 2012 2180 2246 2301 2204 2104 2044 1751 1623 1316 1389 1230 1018
1389 1401 1400 1352 1499 1309 1279 1148 1019 1123 1162 1332 1431 1410 1495 1641 1676 2238 2293 2147 2032 1910 1937 2015 2202 2410 2446 2492 2382 1803 1650 1625 1292 2028 2627 2442 2300 2180 2147 2093 1909 1692 1624 1568 1428 1291 1291 1446 1667 1650 1319 944 918 1089 956 772 628 478 366 339 195 120 234 372 693 888 1132 1291 1370 1550 1969 2052 2127 2131 2109 2318 2061 1770 1706 1639 1558 1202 1200 963 1098
1338 1342 1430 1401 1356 1532 1363 1206 986 1426 1345 1453 1583 1480 1451 1518 1702 2001 2143 2704 2768 2454 2268 2258 2295 2323 2417 2667 2976 2056 1726 1760 2605 2705 2654 2445 2295 2241 2197 1905 1630 1458 1282 1289 1306 1446 1608 1716 1763 1599 1032 728 725 760 746 555 442 372 277 316 348 196 141 181 529 858 1129 1454 1647 1637 1974 2184 2330 2218 2007 2380 2300 1736 1328 1158 1233 1411 1293 1218 1081
1138 1265 1378 1473 1426 1568 1552 1381 1198 1377 1632 1715 1702 1660 1536 1488 1519 1779 2037 3015 2836 2699 2595 2507 2440 2391 2150 2031 2453 2806 2642 3023 2652 2868 2678 2441 2335 2161 1906 1750 1660 1295 1186 1207 1214 1481 1699 1677 1572 1222 836 760 830 711 586 494 523 517 456 486 416 288 404 456 489 722 1077 1269 1590 1704 2044 2275 2438 2446 2156 2359 2279 2351 1797 1610 1556 1396 1370 1358 1089
984 1120 1256 1410 1479 1445 1616 1630 1470 1968 1824 1909 1882 1819 1696 1632 1583 1703 1954 2372 2634 2624 2567 2566 2551 1597 1841 2041 2611 3306 3428 3132 2869 2724 2503 2432 2229 1956 1821 1752 1486 1111 1204 1245 1243 1378 1535 1340 1191 988 831 871 828 671 551 462 528 502 658 548 516 382 501 615 663 708 1136 1132 1394 1530 1728 2238 2604 2496 2244 2396 2775 2413 2116 1669 1998 1899 1679 1566 1519
777 966 1102 1228 1342 1380 1368 1621 1713 1726 2109 2007 1975 1683 1720 1738 1761 1606 1771 2010 2186 2290 2387 2376 1762 1540 2000 3028 3468 3518 3347 2860 2458 2357 2377 2194 1950 1833 1733 1528 1232 1098 1158 1292 1413 1479 1433 1297 1139 999 916 929 757 552 484 426 455 500 559 644 589 533 638 686 829 979 1012 1070 1371 1586 1576 1613 1957 2140 2218 2451 2828 2684 2310 2057 2182 2052 1787 1543 1376
652 517 831 1508 1421 1131 466 920 1344 1475 1919 1845 1791 1896 1731 1644 1433 1256 1474 1714 1870 2012 2081 1491 1479 1419 2918 3578 3331 3241 2656 2087 1878 1930 2267 1682 1674 1588 1426 1250 962 1057 1009 1040 1093 1335 1483 1458 1245 1146 983 902 710 602 544 437 424 459 511 629 714 748 756 616 833 931 1090 1310 1369 1513 1375 1501 1503 1663 2026 2376 2393 2260 2500 2440 2239 2252 2097 1809 1501
589 543 1117 1332 1725 1900 1759 1463 1372 815 1236 1709 1698 1708 1767 1665 1287 1032 1565 1487 1691 1598 1610 1444 1758 2584 3409 2538 2756 2897 2112 1915 1850 1809 1728 1587 1505 1304 992 846 801 997 925 702 711 750 789 947 1132 1064 1062 794 783 779 735 557 536 560 608 672 739 733 686 656 781 950 1031 1252 1476 1467 1407 1245 1426 1749 1949 2467 2834 2353 2535 2343 2206 2256 2191 1986 1470
1474 1568 1408 1376 1537 1592 2078 1284 1515 688 997 1188 1561 1666 1680 1554 1309 1306 1389 1363 1462 1509 1667 1202 2004 3287 2433 1975 2207 2591 2568 1918 1843 1800 1693 1551 1414 1060 795 665 657 844 605 307 333 201 204 519 889 917 834 588 705 727 820 873 784 618 691 795 897 1029 1298 1403 1546 1496 1226 1128 1250 1068 1036 1284 1717 2015 2478 2807 2899 3255 2898 2484 2340 2200 2206 2013 1760
1525 1594 1687 1623 1820 2114 2046 1408 1188 1273 1003 773 957 1348 1277 1130 1259 1893 1161 1335 1403 1462 1367 1639 2826 2981 2932 2289 1904 2588 2543 2098 1981 1746 1620 1436 1288 947 684 510 505 478 188 8 0 0 0 2 101 643 759 573 746 563 707 836 910 1095 987 1062 1032 1336 1531 1562 1536 1559 1136 857 934 846 791 964 1575 1949 2888 2565 2598 2746 3162 3163 2724 2305 2021 1525 1571
1905 2019 1705 1569 1736 1961 2064 1528 1496 1805 1371 1248 1030 1093 1101 1291 1324 1276 1195 1122 1070 1324 1319 2056 3068 3436 2991 2025 2244 2480 2551 2353 1993 1576 1562 1382 1232 800 458 310 326 42 0 0 0 0 0 0 0 100 367 399 186 489 573 813 1128 1225 1080 1122 1024 1377 1521 1474 1623 1537 1265 962 711 619 560 638 1122 2630 2840 2521 2474 2412 2402 2856 3152 2879 1844 1708 1753
1689 1732 1998 2065 1910 1844 1794 2321 1686 1879 1618 1653 1304 1353 1415 1267 1160 953 1115 944 1086 1406 1916 2587 2913 3157 2579 2480 2425 2424 2554 2197 1582 1372 1540 1813 774 521 243 132 44 0 0 0 0 0 0 0 0 0 0 1 0 158 520 853 1165 1140 1102 1311 1252 1268 1355 1529 1593 2835 908 835 818 898 914 812 787 769 1313 2060 2226 2174 2090 2057 2224 2175 2090 2159 2279
1509 1634 1723 1661 1730 1956 1847 1887 1756 1790 1618 1474 1530 1240 1236 1165 1264 1449 1444 1136 1285 1838 1608 2167 2329 2671 2675 2510 2283 2015 2224 1962 1432 1069 1472 1129 410 337 174 46 0 0 0 0 0 0 0 0 0 0 0 0 0 0 150 892 1496 806 1190 847 1117 1313 1429 2244 2654 2236 1259 680 1261 2534 1778 1552 1092 985 1004 1495 1900 1905 1820 1707 1586 1532 1479 1844 1972
2078 1566 1591 1528 1432 1602 1949 2132 1957 1991 1685 1478 1457 1523 1592 1651 1433 1317 1532 1877 1698 1764 1743 2060 1999 2692 2576 2251 1948 1674 1401 2059 1398 835 810 997 224 209 133 18 0 0 0 0 0 0 0 0 0 0 0 0 0 0 0 683 691 781 1003 710 786 1096 2457 1930 1634 1474 1845 1581 1189 1939 1521 1592 1390 962 1085 1539 1611 1625 1542 1522 1743 1529 1380 1331 1574
1885 1610 1656 1537 1623 1678 1502 1652 1873 1872 1772 1765 1550 1557 1584 1426 1451 1502 1770 1624 1897 1732 1885 2177 2022 2428 2235 2210 1910 1460 1219 1769 1646 951 478 527 86 28 10 0 0 0 0 0 0 0 0 0 0 0 0 0 0 0 0 255 46 332 406 401 599 556 2227 1607 1168 1405 1437 1236 1197 1390 1302 1181 907 890 1028 1437 1583 1436 1385 1373 1307 1231 1182 1098 969
1769 1764 1436 1656 1500 1751 1666 1680 1920 1974 1866 1684 1640 1640 1621 1474 1438 1661 1717 2017 1848 1995 1786 1826 2222 2183 2013 1933 1861 1355 1229 1441 2201 1088 538 41 0 0 0 0 0 0 0 0 0 0 0 0 0 0 0 0 0 0 0 55 0 128 110 131 104 16 687 208 887 906 931 1230 1304 1023 1081 1056 841 738 748 1200 1393 1322 1374 1390 1422 1273 1104 961 797
2157 2054 1930 1848 1663 1640 1648 1874 1869 1964 1929 1897 1924 2018 2010 2031 1890 2091 2138 2128 1973 2012 1564 1775 2029 1998 1819 1625 1742 1336 1139 1206 1351 1473 305 12 0 0 0 0 0 0 0 0 0 0 0 0 0 0 0 0 0 0 0 0 0 56 30 0 0 0 0 0 0 0 493 1049 996 1078 2216 1346 818 808 1128 1406 1254 1235 1214 1260 1264 1125 1001 850 730
2196 1687 1717 1881 1881 1712 1675 1563 1735 1882 1858 2373 2269 2026 2285 2469 2401 2277 2246 2070 1980 2004 1833 1698 1850 1647 1637 1544 1613 1231 1103 1056 1034 954 131 11 0 0 0 0 0 0 0 0 0 0 0 0 0 0 0 0 0 0 0 0 0 0 0 0 0 0 0 0 0 0 0 777 969 1007 1530 1487 1076 637 1143 1272 1080 1095 1202 1193 1165 1056 842 812 649
2040 1838 1752 1943 2043 1834 1706 1826 2033 2236 2444 2608 2219 2068 2120 2340 2101 1886 2186 1914 1778 1820 1788 1676 1721 2001 1734 1519 1256 1381 1243 1099 904 748 249 0 0 0 0 0 0 0 0 0 0 0 0 0 0 0 0 0 0 0 0 0 0 0 0 0 0 0 0 0 0 0 35 258 379 848 851 272 0 163 864 1098 954 1104 1368 1212 1185 788 734 840 713
1996 2068 2002 1952 2182 1927 1882 2020 2353 2455 2562 2380 2052 2048 1995 1937 2068 2065 1810 1793 1800 1540 1600 1667 1642 1889 1574 1417 1406 1253 1153 1026 768 494 216 0 0 0 0 0 0 0 0 0 0 0 0 0 0 0 0 0 0 0 0 0 0 0 0 0 0 0 0 0 0 0 0 0 0 0 0 0 0 34 190 1028 1272 1063 1671 1385 1089 700 643 863 771
2002 2111 2040 1863 2202 1926 2189 2306 2565 2568 2282 2292 2205 2228 2044 2095 2063 1800 1579 1696 1880 1767 1775 1625 1602 1614 1506 1450 1359 1251 1104 964 765 395 18 0 0 0 0 0 0 0 0 0 0 0 0 0 0 0 0 0 0 0 0 0 0 0 0 0 0 0 0 0 0 0 0 0 0 0 0 0 0 73 778 1226 1321 1436 1391 1412 1011 791 741 739 750
2177 2246 2118 1926 2343 2287 2255 2270 2493 2506 2518 2254 2268 2115 2010 1982 1958 1809 1683 1594 1710 1599 1678 1542 1590 1591 1492 1424 1285 1364 1293 857 361 107 15 3 0 0 0 0 0 0 0 0 0 0 0 0 0 0 0 0 0 0 0 0 0 0 0 0 0 0 0 0 0 0 0 0 0 0 0 0 0 0 222 882 1202 1339 1370 1266 1193 1137 1016 824 639
2304 2367 2186 2214 2436 2438 2342 2270 2080 2167 2149 2091 2081 2148 1959 2087 2146 1851 1841 1536 1498 1597 1658 2072 1683 1736 1418 1305 1285 1404 1271 1009 402 5 0 85 412 0 0 0 0 0 0 0 0 0 0 0 0 0 0 0 0 0 0 0 0 0 0 0 0 0 0 0 0 0 0 0 0 0 0 0 0 0 0 162 760 1328 1363 1029 1373 1124 936 728 579
2289 2468 2176 2214 2427 2386 2388 2298 1940 1895 1892 1893 2040 2073 2201 2167 2224 1920 1874 1824 1747 1673 1839 1895 1740 1598 1396 1378 1291 1311 1230 852 506 5 0 0 1 1 0 0 0 0 0 0 0 0 0 0 0 0 0 0 0 0 0 0 0 0 0 0 0 0 0 0 0 0 0 0 0 0 0 0 0 0 0 0 0 200 802 1034 728 640 618 654 598
1782 2165 2180 2293 2437 2409 2236 1996 2039 2016 1955 2083 2149 2166 2252 2165 2093 2174 1967 1719 1686 1794 1838 1794 1718 1517 1494 1434 1278 1241 1154 1062 814 186 0 2 177 316 0 0 0 1 0 0 0 0 0 0 0 0 0 0 0 0 0 0 0 0 0 0 0 0 0 0 0 0 0 0 0 0 0 0 0 0 0 0 0 0 246 608 258 48 41 234 387
Wind_Speed
19 17 16 16 17 13 5 2 2 4 4 3 3 3 2 0 2 2 3 3 4 5 5 6 6 6 7 7 7 7 7 8 8 9 9 9 10 10 11 11 12 13 14 16 16 17 17 16 17 17 18 19 20 21 23 24 24 24 25 26 25 24 22 21 20 21 19 20 22 17 14 17 18 17 16 14 12 11 10 9 10 3 3 6 8
15 16 15 15 14 12 4 2 1 2 2 2 2 1 2 3 4 4 4 4 4 5 5 5 5 6 6 6 6 7 7 7 8 8 8 8 9 10 10 11 12 13 14 16 16 17 17 17 18 18 19 20 21 22 23 24 24 25 25 25 23 22 21 22 22 23 23 23 25 19 15 17 16 17 16 16 15 12 12 11 10 2 3 6 8
13 13 14 13 11 11 3 2 2 1 0 1 3 4 5 5 5 5 5 5 5 5 5 5 5 5 6 6 6 7 7 7 7 7 7 7 8 9 10 10 12 13 14 15 16 17 17 18 17 18 18 18 19 19 20 21 21 21 22 21 24 23 20 22 23 23 22 22 19 19 18 15 11 11 12 12 13 13 13 11 10 8 1 9 7
10 14 12 12 11 10 3 3 3 3 3 5 7 8 8 8 7 7 6 6 5 5 5 5 5 5 5 6 7 6 7 6 6 6 6 8 9 9 10 10 11 13 13 15 16 16 17 17 18 18 19 20 20 20 19 21 21 22 23 22 21 20 19 21 22 20 20 20 20 17 10 11 11 13 13 9 11 13 12 12 11 9 4 8 8
9 11 11 10 9 7 4 5 5 6 7 8 9 9 9 9 8 7 6 5 5 5 5 5 4 5 6 6 7 6 6 6 6 6 8 9 9 10 10 10 12 13 15 15 15 16 16 16 18 18 18 18 18 18 18 19 19 19 20 21 20 23 24 23 19 19 17 17 17 16 13 13 12 14 11 11 10 11 13 13 13 11 9 10 8
6 8 9 9 7 5 5 6 8 9 10 10 10 10 9 9 8 7 6 5 5 5 6 6 6 6 6 6 6 6 6 6 7 7 9 10 10 10 10 10 11 12 13 14 15 16 17 17 16 17 17 17 17 17 16 16 16 17 16 16 18 18 20 23 21 18 17 16 16 12 10 9 9 7 13 13 12 11 12 13 14 12 10 10 8
3 6 7 5 5 4 5 7 8 9 10 10 10 10 10 9 8 8 7 6 7 7 7 7 7 7 7 7 6 6 7 7 7 8 9 9 9 9 9 11 12 13 14 15 17 17 17 18 18 17 17 17 17 16 15 15 15 15 15 15 16 17 17 17 16 16 15 13 12 10 9 7 7 5 9 12 10 11 13 15 14 12 9 7 9
3 4 4 4 4 4 5 7 7 9 11 11 10 9 9 9 9 8 9 9 9 9 9 9 9 8 7 7 7 8 7 8 8 8 9 9 9 9 9 10 12 14 14 15 16 16 18 18 19 19 18 17 17 16 15 14 13 13 13 14 14 15 14 10 11 13 12 12 12 11 10 8 6 4 6 11 11 11 10 13 14 13 11 8 7
3 3 3 3 2 6 6 8 8 9 10 10 10 10 10 10 10 10 10 10 10 10 10 9 9 8 8 8 8 9 8 8 8 9 9 9 10 10 10 11 12 13 14 15 17 18 19 19 19 19 18 16 15 14 14 13 13 11 12 14 14 13 13 11 13 12 9 10 12 11 10 9 7 5 7 11 11 8 7 7 10 13 12 6 6
4 4 4 4 2 8 8 10 10 10 11 11 12 12 13 12 11 11 11 11 10 10 10 9 8 8 9 9 9 9 9 8 9 9 9 10 10 10 12 12 14 14 14 14 15 16 16 17 17 17 17 16 15 14 15 14 14 14 14 13 12 10 7 7 8 9 10 11 12 12 12 11 8 6 7 9 11 9 6 7 5 7 6 7 6
4 4 4 3 2 10 11 12 13 13 14 14 13 13 13 12 11 11 11 11 11 10 9 8 8 8 8 8 8 8 8 8 9 9 9 9 10 10 10 10 10 10 11 12 13 14 14 13 15 15 14 13 16 16 16 17 16 14 12 11 9 8 8 8 8 8 8 10 11 11 11 14 11 7 9 10 8 9 7 8 10 11 11 8 8
3 4 4 3 5 12 13 13 14 13 13 12 11 12 12 11 12 12 12 12 11 9 9 8 8 7 7 7 7 7 8 8 8 8 8 9 9 8 8 8 8 9 11 11 12 12 14 14 13 13 12 14 13 12 14 15 15 14 12 11 10 10 10 10 9 11 10 9 9 8 9 11 12 10 14 10 8 8 8 8 8 8 8 7 8
2 3 4 3 2 11 12 14 13 12 11 11 11 11 11 11 11 11 10 9 9 9 8 8 7 7 7 6 7 7 7 7 7 6 7 7 7 7 7 7 7 7 9 9 10 11 12 12 14 16 15 15 13 11 12 11 11 13 14 12 11 9 8 9 10 10 10 9 8 7 7 7 9 11 8 9 10 8 7 4 5 7 7 7 6
2 3 4 4 3 9 14 13 12 11 11 10 10 10 10 10 10 10 10 9 8 8 8 8 8 8 8 8 7 7 7 7 6 6 6 6 7 7 7 7 7 6 6 7 10 10 11 10 11 13 14 13 14 14 13 13 11 10 10 11 8 7 8 8 8 9 9 8 8 6 5 6 7 7 6 6 10 9 7 5 4 5 6 6 7
3 4 4 5 5 4 13 13 12 12 11 10 10 10 11 10 10 10 9 9 9 8 8 8 7 7 7 7 7 7 7 7 7 6 6 6 7 7 7 4 2 4 3 9 10 10 6 4 9 11 11 10 9 10 13 13 12 9 9 13 13 10 7 11 12 9 9 9 8 6 4 4 5 6 5 5 8 9 8 5 4 4 7 7 7
4 5 5 5 5 3 5 10 13 13 12 12 11 11 11 11 11 10 10 9 9 9 9 8 8 8 8 8 8 7 7 7 6 6 7 7 6 7 5 1 2 5 6 8 7 8 9 10 10 7 9 10 9 9 11 14 14 16 13 11 12 12 9 8 14 12 10 11 10 7 5 2 6 5 5 5 7 8 8 8 6 6 7 6 3
5 5 6 5 5 4 4 5 8 13 12 12 12 12 12 11 11 10 10 9 10 10 9 9 8 8 8 8 9 8 7 7 6 7 8 7 6 6 4 2 5 7 5 7 8 9 11 11 9 7 9 11 9 8 8 11 15 14 14 14 11 10 10 7 11 12 11 10 9 9 7 4 2 3 5 8 5 6 7 8 5 5 8 8 7
6 6 6 7 6 6 5 5 6 7 7 10 12 13 11 11 10 10 10 10 10 10 9 8 8 8 8 9 9 7 7 7 6 7 9 7 4 4 2 3 6 6 5 6 7 9 12 12 11 10 12 13 13 12 10 10 12 14 13 14 14 11 7 6 13 13 12 10 9 8 8 3 2 1 3 7 5 5 6 6 3 3 6 8 7
6 7 7 8 8 7 7 6 6 6 6 7 5 5 11 11 11 11 11 11 11 10 9 9 8 9 9 8 7 6 5 6 5 3 5 5 3 4 0 1 5 6 3 7 9 11 12 12 11 11 13 16 14 12 12 12 11 10 10 10 11 11 10 9 13 10 9 10 11 9 9 3 2 1 1 3 6 5 5 4 4 5 6 8 6
6 7 8 8 8 8 8 7 7 7 7 8 8 8 6 10 11 11 11 11 11 10 10 9 9 9 7 6 5 2 1 1 4 2 3 4 5 1 1 1 3 7 5 7 10 12 12 12 13 15 13 12 10 11 13 11 8 10 7 9 9 9 13 14 12 10 10 9 9 10 6 3 3 3 2 2 5 5 4 4 2 3 5 7 7
5 6 7 8 9 9 10 9 8 9 9 10 10 10 10 9 9 11 12 12 11 11 10 10 8 5 4 2 3 3 7 7 5 5 1 3 4 2 2 3 3 5 7 9 12 11 10 11 11 10 9 7 8 9 13 15 14 13 14 12 11 13 14 16 16 12 9 9 9 9 5 6 6 4 4 3 1 3 2 2 5 4 4 6 6
6 6 6 8 8 9 9 10 9 9 10 10 11 11 12 11 11 11 10 10 9 9 8 9 8 9 4 3 5 6 6 6 4 3 5 4 6 6 2 5 4 8 7 6 6 8 7 8 7 7 7 6 5 10 16 15 14 14 12 10 15 18 18 18 17 14 8 8 7 7 5 6 8 7 6 5 3 3 3 2 5 5 4 5 5
4 6 6 8 9 9 9 10 10 10 10 11 11 12 13 13 13 13 12 9 9 9 10 10 10 9 8 7 6 6 6 5 5 3 6 3 2 4 5 1 1 1 3 4 4 5 8 9 9 8 6 6 11 14 17 18 18 14 10 12 14 15 17 19 18 15 10 8 8 3 5 7 9 9 7 5 3 4 4 3 5 6 3 3 6
7 8 8 8 9 10 10 10 11 11 11 11 12 13 14 14 14 13 12 11 10 10 11 10 9 8 6 6 6 5 5 5 4 6 4 8 6 4 3 4 4 4 3 8 9 10 8 10 10 8 12 12 14 16 17 18 18 20 20 18 18 16 15 19 18 15 11 10 10 5 6 8 10 9 7 5 5 5 4 4 5 7 5 1 4
9 10 9 9 10 11 12 11 11 12 13 13 13 13 14 14 13 12 12 12 11 11 11 10 8 7 6 6 5 5 5 6 6 5 6 8 9 9 10 11 11 10 7 13 14 14 14 15 15 13 14 13 14 15 17 17 18 19 20 19 18 18 17 17 15 15 12 12 12 9 10 10 11 9 7 5 5 5 4 4 7 6 6 2 3
8 9 9 9 10 12 12 11 11 11 12 13 13 13 13 12 11 11 12 12 12 11 11 10 9 8 8 7 7 7 7 8 8 7 8 10 10 11 11 12 12 13 14 15 16 15 14 16 14 13 14 15 16 16 17 17 16 19 18 15 14 20 22 19 17 13 10 11 10 8 9 11 10 9 8 6 4 4 4 4 7 8 8 4 5
9 9 9 8 9 11 10 10 10 10 11 12 13 13 12 11 10 12 13 12 13 11 11 11 10 9 9 9 8 8 9 10 10 10 10 12 11 11 12 13 13 14 16 16 15 15 13 13 11 12 14 15 15 15 16 17 17 18 18 15 15 19 22 17 15 13 8 7 6 2 5 10 10 9 8 6 5 5 5 6 8 9 8 6 3
8 9 10 10 10 11 10 10 10 10 11 13 13 13 11 11 11 12 12 13 14 12 11 12 12 11 10 10 11 11 11 12 12 12 12 13 14 13 13 13 15 15 16 17 16 14 13 11 10 11 12 15 15 15 15 16 17 17 16 14 13 15 17 17 12 10 8 7 4 1 4 6 7 8 7 6 6 6 4 6 7 8 7 6 4
9 9 9 10 10 10 11 11 11 12 12 13 13 12 11 11 12 12 12 13 13 12 12 12 13 13 13 14 14 14 15 16 15 14 15 15 15 14 14 15 15 15 16 16 16 12 10 10 10 11 11 13 14 15 15 16 18 19 17 14 11 13 16 15 9 6 6 7 4 2 0 3 3 5 5 6 5 5 6 8 8 7 6 4 3
12 11 10 9 8 9 10 11 11 13 13 12 12 12 11 13 13 13 13 13 14 13 14 14 15 17 16 18 18 19 19 19 18 17 16 16 16 16 16 15 14 14 15 14 13 10 9 9 10 10 10 11 13 14 16 16 15 16 17 15 11 11 14 14 9 7 8 7 5 3 1 1 1 3 4 4 4 4 5 6 3 6 9 5 6
11 10 10 9 9 10 10 11 11 11 12 12 12 13 13 13 14 14 14 14 14 16 16 17 19 20 20 19 19 20 21 21 20 19 18 18 18 17 16 14 12 12 13 11 10 8 8 10 10 10 10 11 11 13 14 14 14 14 11 13 11 10 12 11 11 11 9 7 5 4 2 1 3 4 4 3 3 2 2 4 5 7 7 6 3
13 11 11 10 10 10 10 10 9 11 13 13 13 11 14 14 14 13 14 15 17 19 20 19 20 20 20 18 19 21 22 22 21 20 20 20 19 17 14 12 10 9 9 9 9 8 8 9 10 11 11 12 11 12 13 14 13 13 12 10 11 9 8 7 7 8 7 5 5 5 3 2 2 3 2 1 1 1 1 3 4 5 5 4 3
12 18 19 14 10 10 9 9 8 8 12 11 12 12 15 19 18 13 14 18 21 21 21 20 20 19 20 18 20 22 21 20 19 19 19 18 17 15 12 10 9 8 7 7 7 8 9 9 10 10 11 12 11 11 12 13 13 12 11 10 10 9 8 8 7 7 6 4 4 4 4 3 4 3 2 3 2 4 2 4 5 5 4 4 3
22 18 12 8 10 13 14 15 16 13 12 12 14 13 19 19 17 15 17 20 21 22 21 19 18 19 19 19 19 18 17 17 16 15 15 13 11 10 9 7 7 6 6 7 8 8 8 8 8 8 9 10 11 10 11 11 13 13 12 11 10 9 8 7 7 6 6 5 5 5 5 5 4 4 5 4 4 2 2 4 5 4 5 5 5
18 16 15 11 12 14 11 14 14 17 18 18 18 18 20 19 18 19 20 21 22 21 20 18 16 17 18 16 14 14 14 13 13 11 9 7 5 4 5 5 5 6 7 7 7 8 9 8 8 7 7 9 11 11 11 12 12 12 12 11 10 9 8 7 6 5 5 5 5 6 6 5 5 4 4 4 4 4 3 3 3 4 5 6 6
13 13 12 13 12 12 11 12 14 15 17 20 19 18 21 19 17 19 20 21 21 20 18 17 15 15 15 12 10 11 12 10 10 9 7 5 4 3 3 4 5 7 8 nan nan nan nan nan 8 9 6 6 7 9 12 11 12 12 11 11 10 9 7 7 5 5 4 4 4 5 5 5 4 4 4 4 4 5 4 5 5 6 6 6 5
15 11 15 12 9 9 10 10 11 12 13 18 18 19 18 17 17 17 18 19 20 19 15 15 14 13 11 10 9 10 9 8 8 8 7 5 5 5 5 6 7 nan nan nan nan nan nan nan nan nan 8 8 8 8 10 12 11 11 11 11 11 9 7 6 5 4 3 3 4 4 4 4 3 3 4 6 6 7 7 8 8 10 9 5 4
13 15 13 10 8 8 7 8 10 10 11 14 18 16 13 12 13 15 15 15 15 14 14 11 10 11 9 9 8 8 8 7 8 8 8 8 7 7 7 7 nan nan nan nan nan nan nan nan nan nan nan nan nan 8 9 10 11 10 9 9 9 9 7 5 5 4 4 3 4 3 4 4 4 4 5 5 6 8 9 9 10 11 12 13 12
13 14 10 10 9 10 10 9 10 9 9 13 18 16 8 10 11 11 12 14 14 16 16 8 4 9 9 9 9 8 7 7 8 8 9 8 8 8 8 nan nan nan nan nan nan nan nan nan nan nan nan nan nan nan 11 10 11 10 10 9 9 8 8 7 5 5 4 3 3 4 5 4 5 6 6 7 8 8 8 9 10 11 12 12 12
15 15 13 11 13 12 10 10 11 11 11 15 17 13 7 10 11 10 11 13 14 15 13 9 7 9 10 10 10 9 8 8 10 10 10 9 9 9 9 nan nan nan nan nan nan nan nan nan nan nan nan nan nan nan nan 10 10 11 9 8 8 7 6 6 5 4 3 2 2 3 3 3 5 6 7 8 9 9 9 9 10 11 12 12 13
14 14 12 12 13 14 16 13 14 17 17 19 16 16 14 12 9 10 12 15 13 13 9 7 7 8 10 11 10 9 9 10 10 11 10 10 nan nan nan nan nan nan nan nan nan nan nan nan nan nan nan nan nan nan nan 10 nan 9 7 7 6 5 6 5 3 4 4 3 4 3 3 3 5 6 6 7 8 9 10 10 9 11 11 12 13
20 17 13 14 13 13 15 17 18 18 21 22 21 20 17 17 16 16 16 17 18 15 12 10 8 8 11 12 10 9 10 11 10 12 11 nan nan nan nan nan nan nan nan nan nan nan nan nan nan nan nan nan nan nan nan nan nan 12 9 6 6 nan 7 7 6 5 3 4 4 5 5 4 6 6 6 7 8 9 9 9 9 10 11 13 13
28 23 14 10 9 12 16 17 17 18 20 21 22 20 19 18 18 18 19 17 14 14 14 12 9 7 10 11 11 10 10 11 11 12 12 nan nan nan nan nan nan nan nan nan nan nan nan nan nan nan nan nan nan nan nan nan nan nan nan nan nan nan nan nan nan nan 5 5 5 7 6 6 6 6 6 7 8 10 10 10 10 11 12 14 14
26 28 26 24 22 21 19 18 18 18 19 18 18 18 18 17 17 19 17 16 15 14 14 12 8 7 11 11 10 10 10 12 12 12 12 nan nan nan nan nan nan nan nan nan nan nan nan nan nan nan nan nan nan nan nan nan nan nan nan nan nan nan nan nan nan nan nan 8 8 7 7 7 6 6 7 7 9 10 10 12 13 14 15 15 15
20 21 23 23 22 22 21 20 18 17 16 17 18 16 17 16 15 16 16 15 15 15 15 12 9 10 13 12 11 10 11 12 13 13 14 nan nan nan nan nan nan nan nan nan nan nan nan nan nan nan nan nan nan nan nan nan nan nan nan nan nan nan nan nan nan nan nan 10 8 8 10 8 nan 5 7 7 11 11 11 11 13 15 15 16 16
17 18 19 19 19 19 19 18 16 14 13 16 17 15 15 16 16 16 16 15 16 16 16 15 13 14 14 10 10 11 12 13 13 15 14 nan nan nan nan nan nan nan nan nan nan nan nan nan nan nan nan nan nan nan nan nan nan nan nan nan nan nan nan nan nan nan nan nan nan nan nan nan nan nan 8 8 8 10 10 10 12 13 14 14 15
14 16 18 17 17 17 17 16 15 14 11 13 14 13 13 13 14 15 15 15 15 10 11 11 14 12 11 12 11 11 12 15 14 15 nan nan nan nan nan nan nan nan nan nan nan nan nan nan nan nan nan nan nan nan nan nan nan nan nan nan nan nan nan nan nan nan nan nan nan nan nan nan nan nan 9 9 9 10 10 11 11 11 13 14 15
14 16 17 17 18 17 18 17 15 14 11 12 13 14 15 15 15 15 15 16 16 14 13 12 11 12 12 12 12 12 12 13 16 16 nan nan nan nan nan nan nan nan nan nan nan nan nan nan nan nan nan nan nan nan nan nan nan nan nan nan nan nan nan nan nan nan nan nan nan nan nan nan nan nan 10 9 9 9 9 11 10 10 11 14 15
15 17 17 17 17 17 17 16 15 15 14 14 14 14 15 16 17 18 18 17 16 16 14 12 12 12 13 11 13 12 12 13 14 nan nan nan 15 nan nan nan nan nan nan nan nan nan nan nan nan nan nan nan nan nan nan nan nan nan nan nan nan nan nan nan nan nan nan nan nan nan nan nan nan nan nan 10 10 11 12 12 9 11 12 13 14
13 15 15 16 17 17 17 17 17 16 17 17 17 16 15 17 17 18 20 18 18 17 17 16 14 13 14 13 12 13 11 13 13 nan nan nan nan nan nan nan nan nan nan nan nan nan nan nan nan nan nan nan nan nan nan nan nan nan nan nan nan nan nan nan nan nan nan nan nan nan nan nan nan nan nan nan nan 15 16 15 14 15 16 16 16
14 15 16 16 16 16 16 16 17 17 17 16 15 15 13 14 14 15 18 19 18 19 19 17 15 13 14 13 12 12 11 12 13 14 nan nan 13 13 nan nan nan nan nan nan nan nan nan nan nan nan nan nan nan nan nan nan nan nan nan nan nan nan nan nan nan nan nan nan nan nan nan nan nan nan nan nan nan nan 21 21 21 nan nan 21 22
Wind_Direction
97 95 106 101 101 87 80 75 73 87 108 122 153 178 196 321 12 353 328 306 293 296 305 308 309 313 318 325 333 335 336 339 340 346 352 349 348 348 356 4 11 18 22 21 18 20 24 27 30 32 32 33 31 30 30 30 30 28 24 21 24 24 23 26 26 26 23 27 25 24 52 46 39 45 41 39 30 33 25 32 46 53 348 1 339
88 101 107 112 98 89 74 60 52 75 110 153 161 128 34 23 14 356 337 323 317 323 325 328 324 321 329 335 344 348 348 347 348 356 1 356 353 359 3 10 18 26 28 26 23 23 27 30 33 33 33 34 32 31 29 28 27 27 24 18 20 23 23 20 24 26 23 26 29 37 43 50 54 46 44 42 35 34 29 34 42 17 265 39 356
103 105 111 107 96 88 64 26 11 16 344 20 26 15 16 16 8 354 343 338 337 342 345 340 339 338 341 346 353 357 356 357 358 7 7 5 4 8 11 17 26 31 34 33 31 28 28 34 37 35 36 38 36 35 31 29 28 25 27 20 12 14 22 21 23 24 27 23 31 43 46 34 48 79 69 41 50 44 34 35 38 34 187 32 12
101 110 114 104 83 81 49 9 360 349 356 4 10 14 10 6 1 356 350 346 346 353 355 355 346 348 356 355 6 9 359 6 10 16 19 18 12 16 21 27 31 35 39 42 38 36 35 36 38 40 36 36 34 34 32 30 26 20 24 16 16 11 9 31 26 22 25 28 26 33 40 3 16 35 50 49 49 56 51 44 35 41 54 53 26
108 113 111 106 97 78 30 356 357 357 3 4 8 8 7 2 358 355 350 347 352 359 3 4 358 2 17 15 13 16 13 18 25 27 27 25 22 21 28 31 33 37 36 38 41 41 41 40 39 41 42 40 41 38 33 30 29 31 22 19 16 12 13 21 28 26 20 26 28 29 18 3 354 5 22 26 53 58 58 54 44 38 35 51 38
104 107 109 109 112 91 32 3 360 1 3 2 4 5 4 360 355 348 348 354 2 6 10 12 13 21 28 26 24 24 25 32 35 33 33 28 24 25 30 35 37 39 40 42 43 42 41 40 39 40 43 43 43 42 38 34 31 29 30 28 23 20 21 11 18 25 22 21 30 24 14 9 360 347 12 25 24 42 53 56 47 44 45 47 39
67 106 109 113 120 93 30 4 359 1 0 2 3 2 1 358 351 349 352 3 10 15 15 18 21 24 28 30 30 33 34 40 38 37 36 33 30 31 34 38 41 41 38 36 36 39 38 37 38 39 39 40 42 41 40 38 35 31 29 28 28 25 20 26 22 22 27 18 347 360 13 14 6 360 32 44 31 42 39 49 46 45 45 50 47
122 122 119 124 131 41 7 354 354 358 1 1 359 358 355 356 358 358 2 9 13 19 21 21 19 20 25 29 31 34 35 37 36 35 30 32 33 35 37 39 40 41 40 39 42 37 39 36 38 38 38 35 36 37 37 35 35 32 30 29 30 28 26 21 37 32 16 1 347 350 1 2 20 16 50 63 51 43 40 41 47 41 49 33 50
144 153 151 153 137 354 343 342 349 356 357 356 355 354 355 359 5 7 10 11 16 22 24 24 21 21 22 24 31 35 32 31 30 28 23 28 32 33 36 38 39 40 38 38 37 38 39 37 37 38 38 36 37 31 30 31 28 27 30 27 27 26 24 2 33 40 8 352 350 348 2 11 11 14 52 76 86 72 64 49 47 53 51 41 31
172 182 183 187 183 342 338 339 348 350 352 355 357 358 359 4 8 10 13 15 19 21 23 25 25 25 24 27 29 33 33 29 23 21 21 24 29 33 34 35 36 34 35 40 43 45 44 40 38 37 35 34 34 28 26 23 26 23 22 27 24 26 350 355 31 27 359 350 345 348 351 8 15 26 47 66 87 89 82 65 56 36 55 39 36
189 194 210 230 275 341 342 343 350 352 355 358 359 358 0 5 9 11 12 17 20 22 22 25 26 30 33 32 32 34 37 31 24 18 18 21 26 31 37 39 43 45 45 42 42 45 51 48 46 40 39 32 24 24 22 21 19 16 20 22 18 14 348 355 16 338 347 346 346 350 3 17 6 26 57 64 71 77 70 50 50 46 41 36 27
210 211 223 248 331 342 350 345 352 356 357 356 357 358 1 6 11 12 15 15 18 23 25 24 28 29 37 39 38 39 38 35 28 21 21 25 27 32 38 44 33 38 41 43 45 43 40 43 44 46 32 32 31 28 21 15 11 10 7 7 9 9 358 355 344 331 336 345 350 359 2 360 3 26 61 73 72 66 61 47 41 36 52 43 28
238 236 253 270 278 343 348 345 351 355 357 358 1 4 7 12 17 19 19 21 24 25 24 26 23 23 27 34 38 35 37 36 32 27 25 30 34 36 38 46 54 49 41 40 48 49 48 44 46 40 34 26 18 17 19 14 8 5 358 357 358 355 352 1 328 329 324 331 336 347 3 0 358 28 47 88 94 83 77 61 49 14 31 44 6
265 260 267 283 300 343 346 347 350 355 358 3 6 7 17 19 20 23 25 29 29 28 26 21 22 21 21 28 34 33 32 33 35 32 33 38 42 43 47 43 45 59 70 64 46 47 50 45 52 49 45 36 18 6 13 7 355 359 341 337 335 346 5 344 329 319 317 320 327 339 351 347 351 26 39 74 100 95 83 62 28 24 12 42 357
300 299 289 297 316 314 350 355 354 359 1 6 11 14 22 26 25 26 27 27 27 27 29 25 23 21 26 36 37 41 44 43 44 43 50 53 55 56 59 72 138 99 89 70 51 43 32 356 46 51 51 46 28 9 8 3 352 356 346 334 336 346 6 323 308 310 308 302 305 313 325 336 20 18 44 79 84 94 87 65 28 25 11 17 9
310 311 306 312 322 318 340 356 1 1 5 10 17 21 25 27 27 27 27 26 25 27 26 27 28 26 31 37 40 43 48 47 49 55 60 68 78 83 87 238 45 61 14 53 68 63 40 30 28 35 41 35 7 5 359 354 1 359 0 344 342 338 357 343 311 310 302 291 285 292 295 323 54 25 9 56 73 71 70 64 27 9 1 1 19
317 316 323 326 334 328 332 329 353 6 8 13 19 23 22 25 25 25 24 24 25 28 30 30 28 33 36 42 46 47 53 56 51 55 67 66 72 88 97 82 61 42 47 55 60 59 52 37 22 35 41 31 19 338 348 3 4 7 7 359 350 344 348 1 311 306 298 290 283 283 279 270 52 54 45 54 80 63 68 74 62 6 0 345 1
333 329 338 333 336 337 327 318 339 347 342 9 19 22 23 23 22 20 23 26 27 27 27 27 26 29 33 38 47 52 57 57 50 47 51 60 50 70 84 76 80 84 75 69 58 45 38 26 19 24 32 30 7 1 356 4 11 10 9 3 355 346 347 359 299 291 293 292 282 273 272 277 111 90 86 119 94 75 64 60 54 32 5 358 351
334 340 335 330 336 331 329 321 324 325 329 329 318 354 22 18 18 18 20 24 24 23 22 19 19 22 30 39 49 51 53 63 86 103 155 107 61 86 29 13 102 130 91 61 69 56 41 18 10 23 31 23 16 2 1 9 7 5 7 359 356 345 357 329 295 286 280 286 283 278 272 268 198 202 290 66 77 61 60 51 17 23 10 352 352
325 331 330 329 323 328 325 323 324 327 317 316 321 317 344 15 12 11 15 16 16 12 13 13 16 23 33 46 52 26 350 333 95 115 15 103 101 142 288 49 101 84 64 56 60 46 35 25 21 18 15 10 7 3 359 353 6 14 354 1 1 11 331 330 333 313 292 281 280 280 278 259 233 221 273 14 60 66 37 3 358 7 8 351 342
319 327 325 322 324 329 333 323 328 329 322 314 315 320 324 347 351 3 9 6 6 9 12 18 18 11 27 20 48 296 292 292 290 305 8 287 162 214 15 95 114 136 101 65 43 33 25 18 16 20 10 7 4 8 3 359 4 359 1 358 349 318 334 327 318 310 295 278 272 277 279 271 268 246 235 250 94 103 106 332 322 339 349 349 351
322 313 317 317 317 323 330 326 314 325 318 312 309 310 310 323 316 309 308 324 344 357 337 315 310 302 342 332 294 296 296 295 303 324 301 286 267 225 190 86 19 15 37 52 40 23 3 351 350 359 355 350 11 332 324 330 342 346 356 358 313 320 331 321 309 308 304 275 263 273 289 273 244 230 234 243 223 165 158 253 297 312 334 328 322
320 313 314 323 318 315 315 319 319 313 317 314 308 303 304 304 307 311 314 326 321 317 306 301 298 303 307 311 314 313 314 312 318 8 310 357 51 42 22 34 299 333 11 15 353 343 342 340 340 336 323 303 306 314 319 318 318 333 339 311 307 323 316 305 307 303 292 274 264 264 270 257 238 231 231 236 217 179 167 209 264 282 294 323 310
333 318 313 309 311 310 312 311 312 308 307 300 297 295 298 299 303 311 314 314 314 313 309 310 309 311 321 314 320 320 329 329 5 71 92 316 317 313 290 298 301 317 344 318 321 330 334 330 330 319 310 312 316 318 320 319 320 322 324 330 330 333 322 309 302 287 281 272 266 271 266 251 238 229 223 223 212 189 181 226 248 270 279 284 288
317 302 299 315 316 313 307 311 308 306 307 301 300 298 294 295 305 314 313 311 315 316 317 313 313 316 322 323 331 342 333 330 329 328 323 312 312 311 310 310 310 316 317 319 321 323 324 325 322 317 314 315 317 317 315 316 318 325 330 335 334 328 325 313 304 293 289 277 268 261 254 238 229 222 218 227 212 201 204 236 251 254 272 217 228
313 322 330 322 325 320 320 316 313 314 310 303 301 295 298 306 314 310 305 311 316 314 309 312 314 323 321 325 324 332 334 324 324 320 312 302 309 313 311 304 303 311 316 318 320 324 327 325 324 318 313 313 318 318 315 316 321 326 330 337 342 335 330 326 318 310 293 278 275 271 248 229 226 227 228 233 230 232 245 236 253 272 277 254 203
350 354 334 341 335 333 339 334 331 325 329 313 303 304 310 313 305 300 307 311 309 309 311 312 316 319 321 322 327 326 320 315 311 307 302 305 306 309 304 300 304 312 316 315 317 322 323 322 320 318 313 311 313 315 317 321 326 332 335 344 346 345 337 330 326 317 302 292 302 281 220 215 229 238 236 239 249 259 261 244 247 261 268 255 231
351 352 341 341 335 343 336 338 338 334 331 325 323 326 324 316 310 310 315 312 310 310 313 316 313 315 317 317 313 311 308 301 302 303 307 305 308 305 303 303 308 313 313 313 311 313 313 314 316 312 307 308 308 313 319 321 325 330 334 343 351 355 348 333 325 321 328 340 321 232 185 205 227 243 243 245 246 254 240 233 224 250 268 247 235
350 343 332 327 336 326 318 334 335 332 329 324 334 331 323 325 321 319 322 319 317 316 319 317 317 313 310 308 302 302 300 303 306 307 307 309 307 302 298 301 305 308 307 307 305 303 305 305 307 306 303 306 311 317 318 322 328 331 338 348 353 352 352 342 325 308 329 328 318 308 172 189 218 240 246 248 249 269 263 230 199 209 254 245 232
348 332 316 320 315 313 318 332 332 329 329 322 329 320 323 326 325 325 325 324 327 326 327 326 320 315 315 307 309 310 311 312 312 310 303 299 298 298 296 296 301 304 302 304 308 309 308 305 305 307 309 313 316 319 318 321 326 333 343 347 345 342 342 340 336 339 350 337 334 324 350 63 194 228 233 244 254 264 273 273 200 211 234 232 236
316 314 310 306 303 311 329 335 336 325 320 322 322 325 313 322 322 317 318 323 325 326 325 324 320 315 310 306 312 315 314 312 310 304 298 293 289 289 290 294 298 299 299 311 317 316 315 315 316 320 321 321 323 324 322 323 327 329 336 342 342 332 328 332 346 348 347 351 2 6 5 64 211 222 232 242 263 282 298 267 244 214 219 227 266
298 310 301 288 296 313 335 332 327 325 311 317 319 319 308 319 307 293 313 322 320 317 317 316 312 303 301 309 312 310 307 307 304 298 292 285 283 282 284 289 296 296 301 318 319 317 321 327 328 327 328 328 328 327 326 328 333 334 337 333 324 324 314 317 321 329 343 10 21 27 26 294 242 225 199 204 243 281 265 261 244 221 217 223 238
266 243 230 238 261 288 293 299 321 322 307 317 310 300 292 285 286 306 311 315 309 305 310 308 300 302 306 311 308 306 305 306 300 297 291 286 280 276 277 287 295 293 307 310 315 322 326 328 329 326 327 327 326 328 330 333 337 339 339 339 336 334 331 316 304 304 318 333 346 352 332 294 266 227 173 164 204 202 251 264 243 235 226 200 210
253 262 265 271 284 277 273 271 267 267 292 288 282 284 288 301 301 282 290 296 298 299 301 297 301 304 305 303 303 305 308 306 304 303 300 292 281 273 278 284 281 290 299 303 312 324 329 331 333 328 326 327 331 334 336 336 339 341 343 343 343 348 345 338 323 312 303 303 315 315 299 282 265 261 247 207 218 297 283 258 249 229 199 193 209
285 311 322 309 266 251 255 265 268 275 273 275 284 291 290 297 301 297 292 293 288 290 294 299 302 301 296 296 301 302 302 305 311 315 318 316 298 277 274 281 294 295 305 312 325 328 326 333 333 328 330 337 341 343 341 343 343 343 349 347 348 352 358 2 355 341 319 315 309 302 293 278 269 268 259 256 236 218 224 232 265 248 222 201 200
323 319 290 272 267 265 262 266 267 262 277 288 290 292 293 302 303 294 290 288 290 295 300 301 299 295 294 294 297 296 298 307 317 323 333 336 333 328 320 311 305 315 315 nan nan nan nan nan 322 327 330 340 337 340 342 343 343 346 352 353 353 356 5 10 10 357 333 295 280 268 266 273 279 284 294 288 276 262 222 209 208 236 239 218 179
352 314 303 318 314 282 275 275 275 275 283 282 281 284 291 298 299 294 291 290 294 299 300 295 298 297 296 291 295 297 297 304 313 319 322 322 333 341 338 326 322 nan nan nan nan nan nan nan nan nan 335 351 343 346 343 343 343 346 353 358 352 358 9 11 7 347 316 282 275 274 277 290 295 291 277 270 265 254 239 216 215 215 238 229 232
327 319 322 320 324 298 283 290 284 277 282 285 282 267 275 288 290 294 297 293 297 297 284 284 300 303 305 304 299 299 298 302 304 307 307 319 331 342 344 326 nan nan nan nan nan nan nan nan nan nan nan nan nan 331 347 344 343 348 348 351 358 357 9 17 11 342 323 294 280 288 294 302 294 271 259 262 259 254 250 237 228 232 231 227 220
318 306 313 322 327 303 298 276 264 268 279 290 280 279 291 289 290 296 299 296 295 285 273 275 320 320 316 312 303 303 309 303 299 302 306 320 330 337 335 nan nan nan nan nan nan nan nan nan nan nan nan nan nan nan 346 350 343 345 343 346 354 358 5 9 360 347 335 329 313 283 292 283 280 279 286 281 273 269 263 265 265 265 260 241 237
313 310 321 328 311 295 289 292 302 312 322 298 286 293 331 325 314 306 301 303 292 302 321 327 347 323 318 311 307 310 309 305 303 309 314 324 324 335 333 nan nan nan nan nan nan nan nan nan nan nan nan nan nan nan nan 336 336 326 332 338 342 349 355 4 357 352 355 337 315 296 275 284 273 265 269 275 280 277 275 271 270 269 266 257 245
303 311 330 320 318 319 316 333 334 328 316 303 309 323 330 329 313 319 307 306 320 331 324 328 327 324 313 306 310 313 308 308 312 311 318 323 nan nan nan nan nan nan nan nan nan nan nan nan nan nan nan nan nan nan nan 330 nan 317 315 312 327 327 338 325 344 333 333 340 330 311 295 267 262 265 269 276 278 280 281 274 270 271 264 261 256
327 335 339 331 330 332 342 337 332 332 324 323 334 340 336 332 327 326 316 325 328 330 332 330 332 322 302 300 311 313 308 308 312 316 319 nan nan nan nan nan nan nan nan nan nan nan nan nan nan nan nan nan nan nan nan nan nan 310 303 302 297 nan 309 305 302 306 301 309 312 302 294 271 265 271 279 283 283 278 274 273 270 263 258 256 258
330 329 323 330 348 354 344 339 338 334 333 336 333 332 333 331 328 324 319 314 316 319 326 326 324 311 297 296 303 303 305 303 307 317 315 nan nan nan nan nan nan nan nan nan nan nan nan nan nan nan nan nan nan nan nan nan nan nan nan nan nan nan nan nan nan nan 285 296 302 287 289 290 283 279 278 280 276 272 272 271 267 256 248 249 249
332 332 341 346 348 346 338 340 340 339 336 337 331 328 322 319 317 315 308 314 320 323 321 311 302 299 294 287 292 300 303 303 306 312 310 nan nan nan nan nan nan nan nan nan nan nan nan nan nan nan nan nan nan nan nan nan nan nan nan nan nan nan nan nan nan nan nan 319 287 290 303 298 299 296 296 286 281 277 275 270 264 258 253 251 249
339 340 341 342 339 339 339 340 341 341 337 328 314 311 306 302 302 305 307 312 308 311 308 306 308 308 292 289 289 296 300 304 304 308 310 nan nan nan nan nan nan nan nan nan nan nan nan nan nan nan nan nan nan nan nan nan nan nan nan nan nan nan nan nan nan nan nan 297 294 303 297 288 nan 294 302 310 302 293 286 279 272 265 260 255 251
343 343 345 346 343 343 340 343 344 343 328 314 310 306 305 311 314 315 317 315 318 318 322 321 318 304 307 302 289 292 300 301 301 305 306 nan nan nan nan nan nan nan nan nan nan nan nan nan nan nan nan nan nan nan nan nan nan nan nan nan nan nan nan nan nan nan nan nan nan nan nan nan nan nan 301 309 293 291 289 286 275 271 265 261 255
344 343 340 344 344 343 346 351 348 340 329 313 305 304 301 305 310 314 318 322 321 326 322 312 310 310 298 288 289 293 299 301 298 301 nan nan nan nan nan nan nan nan nan nan nan nan nan nan nan nan nan nan nan nan nan nan nan nan nan nan nan nan nan nan nan nan nan nan nan nan nan nan nan nan 278 287 291 294 296 285 274 269 265 262 256
341 338 339 339 342 340 344 351 350 342 337 322 311 314 318 315 309 310 313 315 317 317 317 313 305 302 291 286 290 293 295 294 299 299 nan nan nan nan nan nan nan nan nan nan nan nan nan nan nan nan nan nan nan nan nan nan nan nan nan nan nan nan nan nan nan nan nan nan nan nan nan nan nan nan 280 279 276 281 277 276 273 270 273 264 262
334 339 342 341 339 336 336 334 338 336 340 342 336 333 327 320 316 316 312 311 310 306 305 301 301 297 294 289 295 294 293 292 296 nan nan nan 308 nan nan nan nan nan nan nan nan nan nan nan nan nan nan nan nan nan nan nan nan nan nan nan nan nan nan nan nan nan nan nan nan nan nan nan nan nan nan 279 281 277 273 273 272 270 266 265 266
336 337 337 337 338 336 336 335 341 342 340 343 341 340 337 324 319 317 313 308 306 302 299 297 295 294 302 300 299 297 297 294 293 nan nan nan nan nan nan nan nan nan nan nan nan nan nan nan nan nan nan nan nan nan nan nan nan nan nan nan nan nan nan nan nan nan nan nan nan nan nan nan nan nan nan nan nan 275 278 281 279 276 272 270 270
333 337 334 336 339 339 341 345 349 344 340 336 335 333 324 314 313 315 314 309 304 302 300 295 292 297 307 308 302 300 296 292 290 291 nan nan 294 299 nan nan nan nan nan nan nan nan nan nan nan nan nan nan nan nan nan nan nan nan nan nan nan nan nan nan nan nan nan nan nan nan nan nan nan nan nan nan nan nan 282 281 278 nan nan 273 274